RYR20FV EGCC-LOWW

Flight info

Callsign RYR20FV
Flight time 2h 16m
Altitude 37000
Route DESIG L603 LAMSO DCT EVELI DCT RKN DCT KUMER DCT GALMA DCT TALEG L620 PIKIB DCT OMELO DCT EVIKU DCT BITSI DCT MIKOV MIKOV8W
Aircraft A320/M-SDE3FGHIRWY/LB1

Departure

Time 2026-04-30 19:21
Airport Manchester Airport (EGCC)

Arrival

Time 2026-04-30 21:37
Airport Vienna International Airport (LOWW)
Time Latitude Longitude Altitude Speed Heading
2026-04-30 18:24 53.36125 -2.26751 260 ft 0 kts 314°
2026-04-30 19:06 53.36116 -2.26736 259 ft 2 kts 314°
2026-04-30 19:06 53.36106 -2.26718 259 ft 2 kts 314°
2026-04-30 19:06 53.36087 -2.26686 259 ft 0 kts 314°
2026-04-30 19:07 53.36076 -2.26644 259 ft 2 kts 268°
2026-04-30 19:07 53.36079 -2.26622 259 ft 0 kts 245°
2026-04-30 19:08 53.36083 -2.26610 259 ft 0 kts 240°
2026-04-30 19:11 53.36081 -2.26617 259 ft 2 kts 240°
2026-04-30 19:12 53.36063 -2.26669 259 ft 7 kts 238°
2026-04-30 19:12 53.36023 -2.26757 259 ft 10 kts 231°
2026-04-30 19:12 53.35970 -2.26839 259 ft 10 kts 196°
2026-04-30 19:13 53.35847 -2.26954 259 ft 11 kts 241°
2026-04-30 19:13 53.35810 -2.27169 259 ft 12 kts 300°
2026-04-30 19:13 53.35777 -2.27345 259 ft 13 kts 231°
2026-04-30 19:14 53.35716 -2.27469 259 ft 14 kts 230°
2026-04-30 19:14 53.35651 -2.27601 259 ft 15 kts 229°
2026-04-30 19:14 53.35601 -2.27688 259 ft 15 kts 225°
2026-04-30 19:14 53.35522 -2.27814 259 ft 16 kts 223°
2026-04-30 19:15 53.35412 -2.27988 259 ft 16 kts 224°
2026-04-30 19:15 53.35273 -2.28220 259 ft 17 kts 227°
2026-04-30 19:15 53.35168 -2.28434 259 ft 19 kts 231°
2026-04-30 19:16 53.35084 -2.28606 259 ft 19 kts 230°
2026-04-30 19:16 53.35001 -2.28763 259 ft 17 kts 226°
2026-04-30 19:16 53.34845 -2.29040 259 ft 13 kts 230°
2026-04-30 19:17 53.34782 -2.29167 259 ft 14 kts 230°
2026-04-30 19:17 53.34685 -2.29325 259 ft 0 kts 199°
2026-04-30 19:19 53.34674 -2.29331 259 ft 6 kts 197°
2026-04-30 19:19 53.34636 -2.29344 259 ft 9 kts 184°
2026-04-30 19:19 53.34546 -2.29190 259 ft 10 kts 53°
2026-04-30 19:20 53.34604 -2.29085 259 ft 23 kts 50°
2026-04-30 19:20 53.34862 -2.28546 260 ft 95 kts 52°
2026-04-30 19:20 53.35876 -2.26432 624 ft 159 kts 55°
2026-04-30 19:21 53.36555 -2.24981 1313 ft 160 kts 58°
2026-04-30 19:21 53.38209 -2.21509 2564 ft 178 kts 60°
2026-04-30 19:22 53.39886 -2.17921 3268 ft 212 kts 59°
2026-04-30 19:22 53.42604 -2.12136 4285 ft 263 kts 57°
2026-04-30 19:23 53.46486 -2.03922 5029 ft 271 kts 57°
2026-04-30 19:24 53.48457 -1.99722 5801 ft 279 kts 56°
2026-04-30 19:24 53.49654 -1.97209 6671 ft 279 kts 56°
2026-04-30 19:24 53.51548 -1.91707 8118 ft 273 kts 89°
2026-04-30 19:25 53.51369 -1.82171 10169 ft 277 kts 104°
2026-04-30 19:26 53.50180 -1.74716 11161 ft 301 kts 110°
2026-04-30 19:26 53.49141 -1.68911 11876 ft 317 kts 110°
2026-04-30 19:26 53.48507 -1.65340 12502 ft 319 kts 110°
2026-04-30 19:27 53.47239 -1.58200 13692 ft 323 kts 109°
2026-04-30 19:27 53.45718 -1.49697 14971 ft 330 kts 109°
2026-04-30 19:28 53.45280 -1.47264 15316 ft 332 kts 109°
2026-04-30 19:28 53.43938 -1.39809 16316 ft 338 kts 109°
2026-04-30 19:29 53.42561 -1.32195 17285 ft 344 kts 110°
2026-04-30 19:29 53.41866 -1.28359 17754 ft 347 kts 110°
2026-04-30 19:30 53.39495 -1.15306 19249 ft 357 kts 110°
2026-04-30 19:30 53.38283 -1.08678 20020 ft 360 kts 110°
2026-04-30 19:31 53.36813 -1.00673 20901 ft 364 kts 110°
2026-04-30 19:31 53.36068 -0.96629 21331 ft 366 kts 110°
2026-04-30 19:31 53.34562 -0.88472 22144 ft 370 kts 110°
2026-04-30 19:32 53.33797 -0.84345 22551 ft 372 kts 110°
2026-04-30 19:32 53.33035 -0.80245 22939 ft 374 kts 110°
2026-04-30 19:32 53.32265 -0.76115 23304 ft 376 kts 110°
2026-04-30 19:32 53.31490 -0.71966 23683 ft 378 kts 110°
2026-04-30 19:33 53.30701 -0.67745 24068 ft 379 kts 110°
2026-04-30 19:33 53.29912 -0.63534 24415 ft 381 kts 110°
2026-04-30 19:33 53.29116 -0.59293 24755 ft 384 kts 110°
2026-04-30 19:33 53.28319 -0.55058 25116 ft 385 kts 110°
2026-04-30 19:34 53.27507 -0.50760 25461 ft 387 kts 110°
2026-04-30 19:34 53.26693 -0.46460 25802 ft 389 kts 110°
2026-04-30 19:34 53.25051 -0.37808 26459 ft 393 kts 110°
2026-04-30 19:35 53.24220 -0.33444 26785 ft 395 kts 110°
2026-04-30 19:35 53.23383 -0.29061 27123 ft 396 kts 110°
2026-04-30 19:35 53.22537 -0.24643 27433 ft 398 kts 110°
2026-04-30 19:35 53.21686 -0.20202 27735 ft 400 kts 110°
2026-04-30 19:36 53.20834 -0.15762 28044 ft 402 kts 110°
2026-04-30 19:36 53.19982 -0.11340 28334 ft 404 kts 110°
2026-04-30 19:36 53.18258 -0.02438 28869 ft 408 kts 110°
2026-04-30 19:37 53.17378 0.02093 29121 ft 410 kts 110°
2026-04-30 19:37 53.16501 0.06596 29384 ft 411 kts 111°
2026-04-30 19:37 53.15624 0.11092 29656 ft 413 kts 110°
2026-04-30 19:37 53.14731 0.15658 29933 ft 414 kts 110°
2026-04-30 19:38 53.13837 0.20213 30165 ft 416 kts 110°
2026-04-30 19:38 53.12936 0.24798 30382 ft 417 kts 110°
2026-04-30 19:38 53.12040 0.29351 30626 ft 419 kts 110°
2026-04-30 19:38 53.11134 0.33946 30840 ft 420 kts 110°
2026-04-30 19:39 53.10226 0.38535 31112 ft 420 kts 110°
2026-04-30 19:39 53.09310 0.43163 31436 ft 419 kts 110°
2026-04-30 19:39 53.08406 0.47715 31753 ft 418 kts 110°
2026-04-30 19:39 53.07500 0.52271 32054 ft 417 kts 110°
2026-04-30 19:40 53.06584 0.56858 32367 ft 415 kts 110°
2026-04-30 19:40 53.05685 0.61352 32637 ft 414 kts 110°
2026-04-30 19:40 53.04776 0.65892 32900 ft 414 kts 111°
2026-04-30 19:40 53.03867 0.70416 33180 ft 413 kts 111°
2026-04-30 19:41 53.02958 0.74928 33457 ft 412 kts 111°
2026-04-30 19:41 53.02050 0.79433 33712 ft 412 kts 111°
2026-04-30 19:41 53.01143 0.83921 33954 ft 411 kts 111°
2026-04-30 19:41 53.00230 0.88418 34212 ft 410 kts 110°
2026-04-30 19:42 52.99330 0.92843 34483 ft 409 kts 111°
2026-04-30 19:42 52.98452 0.97319 34750 ft 408 kts 108°
2026-04-30 19:42 52.97712 1.01836 34962 ft 407 kts 105°
2026-04-30 19:42 52.97117 1.06418 35139 ft 408 kts 103°
2026-04-30 19:43 52.96582 1.11041 35286 ft 409 kts 103°
2026-04-30 19:43 52.96050 1.15663 35429 ft 410 kts 103°
2026-04-30 19:43 52.95514 1.20294 35559 ft 411 kts 103°
2026-04-30 19:44 52.94436 1.29552 35798 ft 413 kts 103°
2026-04-30 19:44 52.93891 1.34206 35918 ft 414 kts 103°
2026-04-30 19:44 52.93343 1.38869 36032 ft 415 kts 103°
2026-04-30 19:44 52.92789 1.43574 36159 ft 415 kts 103°
2026-04-30 19:45 52.92236 1.48242 36286 ft 416 kts 103°
2026-04-30 19:45 52.91678 1.52948 36394 ft 417 kts 102°
2026-04-30 19:45 52.91122 1.57607 36503 ft 417 kts 102°
2026-04-30 19:45 52.90561 1.62307 36614 ft 418 kts 102°
2026-04-30 19:46 52.89997 1.67006 36700 ft 419 kts 103°
2026-04-30 19:46 52.89426 1.71758 36820 ft 419 kts 103°
2026-04-30 19:46 52.88853 1.76501 36964 ft 420 kts 103°
2026-04-30 19:46 52.88276 1.81251 37072 ft 421 kts 103°
2026-04-30 19:47 52.87701 1.85981 37180 ft 421 kts 103°
2026-04-30 19:47 52.86535 1.95509 37277 ft 423 kts 103°
2026-04-30 19:48 52.85356 2.05079 37282 ft 424 kts 103°
2026-04-30 19:48 52.84177 2.14585 37283 ft 424 kts 103°
2026-04-30 19:49 52.82987 2.24120 37286 ft 423 kts 103°
2026-04-30 19:49 52.81199 2.38324 37289 ft 424 kts 103°
2026-04-30 19:50 52.79990 2.47830 37292 ft 425 kts 103°
2026-04-30 19:50 52.78767 2.57381 37295 ft 425 kts 103°
2026-04-30 19:51 52.77544 2.66864 37296 ft 425 kts 103°
2026-04-30 19:51 52.76307 2.76390 37294 ft 424 kts 103°
2026-04-30 19:52 52.75070 2.85851 37268 ft 424 kts 103°
2026-04-30 19:52 52.74450 2.90567 37417 ft 422 kts 103°
2026-04-30 19:52 52.73807 2.95280 37336 ft 422 kts 105°
2026-04-30 19:53 52.72083 3.04492 37299 ft 422 kts 111°
2026-04-30 19:53 52.69989 3.13436 37298 ft 422 kts 112°
2026-04-30 19:54 52.67881 3.22391 36944 ft 421 kts 111°
2026-04-30 19:54 52.66821 3.26878 37186 ft 419 kts 111°
2026-04-30 19:54 52.65768 3.31322 37266 ft 421 kts 111°
2026-04-30 19:55 52.63857 3.40477 37305 ft 424 kts 106°
2026-04-30 19:55 52.62495 3.49830 37548 ft 425 kts 103°
2026-04-30 19:56 52.61855 3.54569 37385 ft 423 kts 103°
2026-04-30 19:56 52.61216 3.59285 37337 ft 423 kts 103°
2026-04-30 19:56 52.59932 3.68691 37313 ft 423 kts 103°
2026-04-30 19:57 52.58639 3.78100 37310 ft 423 kts 103°
2026-04-30 19:57 52.57339 3.87491 37306 ft 422 kts 103°
2026-04-30 19:58 52.56036 3.96848 37306 ft 423 kts 103°
2026-04-30 19:58 52.54710 4.06311 37307 ft 423 kts 103°
2026-04-30 19:59 52.53389 4.15684 37313 ft 424 kts 103°
2026-04-30 20:00 52.51385 4.29784 37320 ft 424 kts 103°
2026-04-30 20:00 52.50049 4.39116 37321 ft 423 kts 103°
2026-04-30 20:01 52.48019 4.53186 37324 ft 423 kts 103°
2026-04-30 20:01 52.46658 4.62544 37328 ft 423 kts 103°
2026-04-30 20:02 52.44601 4.76582 37336 ft 424 kts 103°
2026-04-30 20:03 52.42519 4.90669 37338 ft 425 kts 103°
2026-04-30 20:03 52.41126 5.00026 37338 ft 425 kts 103°
2026-04-30 20:04 52.39726 5.09370 37334 ft 424 kts 103°
2026-04-30 20:05 52.37609 5.23401 37336 ft 424 kts 103°
2026-04-30 20:05 52.35484 5.37360 37340 ft 424 kts 103°
2026-04-30 20:06 52.34046 5.46736 37343 ft 425 kts 103°
2026-04-30 20:06 52.32600 5.56113 37348 ft 425 kts 103°
2026-04-30 20:07 52.31153 5.65438 37351 ft 425 kts 104°
2026-04-30 20:08 52.28966 5.79440 37356 ft 425 kts 103°
2026-04-30 20:08 52.27497 5.88772 37364 ft 424 kts 103°
2026-04-30 20:09 52.26025 5.98079 37362 ft 425 kts 103°
2026-04-30 20:09 52.23789 6.12111 37370 ft 426 kts 103°
2026-04-30 20:10 52.21544 6.26084 37373 ft 426 kts 103°
2026-04-30 20:11 52.19286 6.40029 37376 ft 425 kts 103°
2026-04-30 20:11 52.17769 6.49332 37377 ft 425 kts 103°
2026-04-30 20:12 52.15489 6.63228 37371 ft 425 kts 103°
2026-04-30 20:13 52.13951 6.72519 37373 ft 426 kts 104°
2026-04-30 20:13 52.12555 6.81896 37377 ft 425 kts 101°
2026-04-30 20:13 52.11923 6.86515 37163 ft 423 kts 101°
2026-04-30 20:14 52.11283 6.91185 37647 ft 424 kts 101°
2026-04-30 20:14 52.10637 6.95897 37469 ft 425 kts 101°
2026-04-30 20:14 52.09998 7.00545 37208 ft 423 kts 101°
2026-04-30 20:14 52.09358 7.05180 37335 ft 424 kts 101°
2026-04-30 20:15 52.08702 7.09917 37371 ft 426 kts 101°
2026-04-30 20:15 52.07407 7.19225 37386 ft 427 kts 101°
2026-04-30 20:16 52.06091 7.28616 37390 ft 426 kts 101°
2026-04-30 20:16 52.04772 7.37975 37395 ft 426 kts 101°
2026-04-30 20:17 52.03443 7.47350 37393 ft 427 kts 101°
2026-04-30 20:17 52.02108 7.56709 37394 ft 427 kts 101°
2026-04-30 20:18 52.00765 7.66059 37399 ft 427 kts 101°
2026-04-30 20:18 51.99402 7.75499 37401 ft 427 kts 101°
2026-04-30 20:19 51.98042 7.84868 37402 ft 427 kts 101°
2026-04-30 20:19 51.96674 7.94231 37400 ft 427 kts 101°
2026-04-30 20:20 51.95298 8.03586 37400 ft 428 kts 101°
2026-04-30 20:20 51.93914 8.12935 37398 ft 428 kts 101°
2026-04-30 20:21 51.92524 8.22279 37390 ft 428 kts 101°
2026-04-30 20:21 51.91116 8.31683 37391 ft 427 kts 101°
2026-04-30 20:22 51.89714 8.40992 37394 ft 428 kts 101°
2026-04-30 20:22 51.88302 8.50321 37405 ft 428 kts 101°
2026-04-30 20:23 51.86959 8.59130 37405 ft 428 kts 101°
2026-04-30 20:23 51.85543 8.68372 37407 ft 428 kts 101°
2026-04-30 20:24 51.84096 8.77764 37400 ft 428 kts 101°
2026-04-30 20:24 51.82659 8.87037 37598 ft 427 kts 101°
2026-04-30 20:24 51.81936 8.91679 37461 ft 426 kts 101°
2026-04-30 20:25 51.80485 9.00961 37414 ft 427 kts 101°
2026-04-30 20:25 51.79762 9.05574 37056 ft 427 kts 101°
2026-04-30 20:26 51.78311 9.14775 37380 ft 427 kts 101°
2026-04-30 20:26 51.76094 9.28738 37410 ft 427 kts 101°
2026-04-30 20:27 51.73138 9.47186 37413 ft 427 kts 101°
2026-04-30 20:28 51.70135 9.65704 37414 ft 427 kts 101°
2026-04-30 20:30 51.66347 9.88795 37418 ft 427 kts 101°
2026-04-30 20:31 51.61744 10.16437 37412 ft 426 kts 101°
2026-04-30 20:32 51.57868 10.39387 37421 ft 426 kts 101°
2026-04-30 20:33 51.55521 10.53149 37422 ft 426 kts 100°
2026-04-30 20:34 51.53164 10.66888 37421 ft 425 kts 101°
2026-04-30 20:35 51.50859 10.80621 37429 ft 426 kts 100°
2026-04-30 20:35 51.48540 10.94347 37427 ft 426 kts 100°
2026-04-30 20:36 51.46976 11.03527 37426 ft 425 kts 100°
2026-04-30 20:37 51.44640 11.17170 37429 ft 425 kts 100°
2026-04-30 20:37 51.43136 11.25905 37426 ft 424 kts 100°
2026-04-30 20:38 51.41557 11.35009 37418 ft 425 kts 100°
2026-04-30 20:38 51.39914 11.44101 37677 ft 427 kts 103°
2026-04-30 20:39 51.37795 11.52919 37437 ft 427 kts 106°
2026-04-30 20:39 51.36673 11.57297 37422 ft 426 kts 106°
2026-04-30 20:40 51.33303 11.70419 37412 ft 427 kts 107°
2026-04-30 20:40 51.31035 11.79213 37406 ft 427 kts 107°
2026-04-30 20:41 51.27644 11.92304 37410 ft 427 kts 107°
2026-04-30 20:41 51.25361 12.01073 37411 ft 427 kts 107°
2026-04-30 20:42 51.23081 12.09788 37414 ft 426 kts 107°
2026-04-30 20:43 51.19660 12.22822 37423 ft 426 kts 106°
2026-04-30 20:43 51.17360 12.31539 37432 ft 424 kts 106°
2026-04-30 20:44 51.13928 12.44498 37429 ft 424 kts 106°
2026-04-30 20:44 51.11638 12.53096 37297 ft 421 kts 106°
2026-04-30 20:45 51.09430 12.61724 37422 ft 420 kts 102°
2026-04-30 20:45 51.07713 12.70538 37431 ft 417 kts 99°
2026-04-30 20:46 51.04526 12.88157 37435 ft 415 kts 99°
2026-04-30 20:47 51.02123 13.01343 37442 ft 415 kts 99°
2026-04-30 20:48 50.99703 13.14527 37430 ft 414 kts 99°
2026-04-30 20:48 50.98078 13.23313 37427 ft 415 kts 98°
2026-04-30 20:49 50.96458 13.32035 37415 ft 415 kts 98°
2026-04-30 20:50 50.94211 13.44623 37409 ft 413 kts 98°
2026-04-30 20:50 50.92623 13.53384 37399 ft 414 kts 98°
2026-04-30 20:51 50.90982 13.62116 37403 ft 415 kts 98°
2026-04-30 20:51 50.88506 13.75247 37405 ft 416 kts 99°
2026-04-30 20:52 50.86833 13.84080 37410 ft 417 kts 99°
2026-04-30 20:53 50.83493 13.96885 37403 ft 430 kts 111°
2026-04-30 20:53 50.80056 14.04729 37407 ft 440 kts 121°
2026-04-30 20:54 50.73407 14.15034 37415 ft 449 kts 129°
2026-04-30 20:55 50.66522 14.24901 37420 ft 448 kts 129°
2026-04-30 20:55 50.61902 14.31527 37422 ft 447 kts 129°
2026-04-30 20:56 50.55029 14.41367 37420 ft 447 kts 129°
2026-04-30 20:57 50.48145 14.51182 37422 ft 449 kts 129°
2026-04-30 20:57 50.43622 14.57845 37423 ft 446 kts 127°
2026-04-30 20:58 50.36921 14.67988 37431 ft 445 kts 127°
2026-04-30 20:58 50.32472 14.74717 37427 ft 446 kts 127°
2026-04-30 20:59 50.25786 14.84790 37432 ft 445 kts 127°
2026-04-30 21:00 50.16853 14.98185 37435 ft 446 kts 127°
2026-04-30 21:01 50.10150 15.08192 37419 ft 446 kts 127°
2026-04-30 21:02 50.03397 15.18226 37410 ft 446 kts 127°
2026-04-30 21:02 49.98923 15.24855 37413 ft 445 kts 127°
2026-04-30 21:03 49.94418 15.31512 37421 ft 445 kts 127°
2026-04-30 21:03 49.90012 15.38002 37418 ft 446 kts 127°
2026-04-30 21:04 49.85503 15.44626 37420 ft 445 kts 127°
2026-04-30 21:04 49.78762 15.54500 37401 ft 445 kts 127°
2026-04-30 21:05 49.76528 15.57767 37178 ft 445 kts 127°
2026-04-30 21:05 49.74283 15.61036 36929 ft 442 kts 127°
2026-04-30 21:05 49.72054 15.64274 36647 ft 439 kts 127°
2026-04-30 21:05 49.69816 15.67525 36373 ft 436 kts 127°
2026-04-30 21:06 49.67630 15.70698 36147 ft 434 kts 127°
2026-04-30 21:06 49.65435 15.73885 35922 ft 434 kts 127°
2026-04-30 21:06 49.63230 15.77083 35604 ft 433 kts 127°
2026-04-30 21:06 49.61053 15.80233 35161 ft 432 kts 126°
2026-04-30 21:07 49.58843 15.83426 34588 ft 433 kts 126°
2026-04-30 21:07 49.56650 15.86591 33911 ft 435 kts 125°
2026-04-30 21:07 49.54463 15.89755 33238 ft 437 kts 125°
2026-04-30 21:07 49.52235 15.92969 32520 ft 439 kts 125°
2026-04-30 21:08 49.50015 15.96166 31807 ft 441 kts 125°
2026-04-30 21:08 49.47772 15.99387 31059 ft 443 kts 125°
2026-04-30 21:08 49.45517 16.02617 30525 ft 438 kts 125°
2026-04-30 21:08 49.43307 16.05785 30001 ft 433 kts 125°
2026-04-30 21:09 49.41107 16.08931 29504 ft 428 kts 125°
2026-04-30 21:09 49.38959 16.12005 29015 ft 423 kts 125°
2026-04-30 21:09 49.36823 16.15056 28538 ft 418 kts 125°
2026-04-30 21:09 49.34694 16.18091 28053 ft 414 kts 125°
2026-04-30 21:10 49.32556 16.21032 27567 ft 415 kts 129°
2026-04-30 21:10 49.30203 16.23697 27055 ft 420 kts 135°
2026-04-30 21:10 49.27684 16.25947 26603 ft 424 kts 142°
2026-04-30 21:10 49.25035 16.27956 26137 ft 422 kts 143°
2026-04-30 21:11 49.22420 16.29878 25660 ft 419 kts 144°
2026-04-30 21:11 49.19788 16.31800 25189 ft 415 kts 144°
2026-04-30 21:11 49.17206 16.33695 24713 ft 412 kts 144°
2026-04-30 21:11 49.14632 16.35587 24238 ft 408 kts 144°
2026-04-30 21:12 49.12111 16.37445 23787 ft 405 kts 144°
2026-04-30 21:12 49.09577 16.39310 23302 ft 402 kts 144°
2026-04-30 21:12 49.07058 16.41167 22841 ft 399 kts 144°
2026-04-30 21:12 49.04563 16.43001 22376 ft 397 kts 144°
2026-04-30 21:13 49.02103 16.44807 21911 ft 394 kts 144°
2026-04-30 21:13 48.99626 16.46629 21463 ft 393 kts 145°
2026-04-30 21:13 48.97179 16.48424 21004 ft 391 kts 145°
2026-04-30 21:13 48.94738 16.50217 20520 ft 390 kts 146°
2026-04-30 21:14 48.92298 16.52003 20039 ft 389 kts 146°
2026-04-30 21:14 48.89971 16.53705 19609 ft 387 kts 146°
2026-04-30 21:14 48.87477 16.55527 19129 ft 386 kts 147°
2026-04-30 21:14 48.85058 16.57290 18644 ft 384 kts 147°
2026-04-30 21:15 48.82633 16.59054 18193 ft 382 kts 147°
2026-04-30 21:15 48.80220 16.60775 17712 ft 382 kts 150°
2026-04-30 21:15 48.77738 16.62183 17245 ft 384 kts 156°
2026-04-30 21:15 48.75194 16.63189 17186 ft 379 kts 161°
2026-04-30 21:16 48.72587 16.64054 17231 ft 379 kts 162°
2026-04-30 21:16 48.70018 16.64882 17255 ft 380 kts 162°
2026-04-30 21:16 48.67389 16.65736 17287 ft 380 kts 162°
2026-04-30 21:16 48.64841 16.66566 17303 ft 380 kts 162°
2026-04-30 21:17 48.62396 16.67367 17329 ft 380 kts 162°
2026-04-30 21:17 48.59812 16.68184 17370 ft 383 kts 166°
2026-04-30 21:17 48.57126 16.68104 17370 ft 394 kts 191°
2026-04-30 21:17 48.54641 16.66417 17386 ft 400 kts 214°
2026-04-30 21:18 48.52425 16.63812 17399 ft 399 kts 220°
2026-04-30 21:18 48.50314 16.61104 17398 ft 399 kts 220°
2026-04-30 21:18 48.48154 16.58507 17375 ft 398 kts 213°
2026-04-30 21:18 48.45653 16.56881 17391 ft 391 kts 187°
2026-04-30 21:19 48.42985 16.56904 17388 ft 380 kts 163°
2026-04-30 21:19 48.40494 16.58033 17403 ft 374 kts 155°
2026-04-30 21:19 48.38049 16.59378 17391 ft 374 kts 154°
2026-04-30 21:19 48.35563 16.60666 17386 ft 377 kts 156°
2026-04-30 21:20 48.33058 16.61838 17392 ft 378 kts 158°
2026-04-30 21:20 48.30508 16.62948 17385 ft 378 kts 159°
2026-04-30 21:20 48.27954 16.64027 17378 ft 378 kts 159°
2026-04-30 21:20 48.25446 16.65076 16942 ft 381 kts 159°
2026-04-30 21:21 48.22874 16.66153 16380 ft 382 kts 159°
2026-04-30 21:21 48.20353 16.67204 15896 ft 372 kts 159°
2026-04-30 21:21 48.15522 16.69217 14983 ft 353 kts 159°
2026-04-30 21:22 48.13180 16.70198 14546 ft 346 kts 159°
2026-04-30 21:22 48.06348 16.73046 13282 ft 337 kts 160°
2026-04-30 21:23 48.04099 16.73987 12865 ft 338 kts 160°
2026-04-30 21:23 48.01844 16.74927 12401 ft 339 kts 160°
2026-04-30 21:23 47.97274 16.76823 11562 ft 341 kts 161°
2026-04-30 21:24 47.95008 16.77762 11123 ft 342 kts 161°
2026-04-30 21:24 47.92708 16.78712 10770 ft 339 kts 161°
2026-04-30 21:24 47.90470 16.79631 10605 ft 330 kts 161°
2026-04-30 21:24 47.88286 16.80528 10426 ft 322 kts 161°
2026-04-30 21:25 47.84078 16.82256 10034 ft 308 kts 161°
2026-04-30 21:25 47.81997 16.83115 9687 ft 306 kts 161°
2026-04-30 21:25 47.79993 16.83946 9557 ft 297 kts 161°
2026-04-30 21:26 47.76076 16.85568 9019 ft 290 kts 161°
2026-04-30 21:26 47.74154 16.86359 8707 ft 289 kts 163°
2026-04-30 21:27 47.70341 16.85316 8003 ft 292 kts 224°
2026-04-30 21:27 47.69278 16.82820 7692 ft 284 kts 257°
2026-04-30 21:27 47.69015 16.80008 7436 ft 274 kts 277°
2026-04-30 21:28 47.70744 16.75443 6807 ft 255 kts 331°
2026-04-30 21:28 47.72326 16.74380 6481 ft 250 kts 345°
2026-04-30 21:28 47.75659 16.73096 5871 ft 247 kts 348°
2026-04-30 21:29 47.77320 16.72471 5571 ft 246 kts 348°
2026-04-30 21:29 47.82259 16.70455 4643 ft 244 kts 347°
2026-04-30 21:30 47.85502 16.69069 4041 ft 240 kts 347°
2026-04-30 21:31 47.90012 16.67131 3176 ft 211 kts 347°
2026-04-30 21:31 47.92659 16.65999 3055 ft 179 kts 347°
2026-04-30 21:32 47.94837 16.65070 2958 ft 146 kts 348°
2026-04-30 21:32 47.95798 16.64664 2964 ft 142 kts 348°
2026-04-30 21:32 47.96733 16.64270 3003 ft 140 kts 348°
2026-04-30 21:32 47.97683 16.63869 2876 ft 140 kts 348°
2026-04-30 21:33 47.98619 16.63472 2690 ft 139 kts 348°
2026-04-30 21:33 48.00472 16.62686 2322 ft 138 kts 348°
2026-04-30 21:33 48.01393 16.62296 2138 ft 138 kts 348°
2026-04-30 21:34 48.02319 16.61904 1952 ft 137 kts 348°
2026-04-30 21:34 48.04162 16.61124 1573 ft 137 kts 346°
2026-04-30 21:34 48.05076 16.60741 1377 ft 137 kts 346°
2026-04-30 21:35 48.05992 16.60362 1173 ft 136 kts 346°
2026-04-30 21:35 48.06903 16.59980 980 ft 136 kts 344°
2026-04-30 21:35 48.07807 16.59578 869 ft 135 kts 345°
2026-04-30 21:35 48.08716 16.59203 732 ft 135 kts 344°
2026-04-30 21:36 48.09615 16.58817 611 ft 130 kts 345°
2026-04-30 21:36 48.10376 16.58493 613 ft 91 kts 345°
2026-04-30 21:37 48.11034 16.58089 609 ft 13 kts 301°
2026-04-30 21:37 48.11077 16.57964 609 ft 14 kts 294°
2026-04-30 21:37 48.11120 16.57828 609 ft 14 kts 297°
2026-04-30 21:37 48.11169 16.57686 608 ft 15 kts 296°
2026-04-30 21:38 48.11219 16.57534 608 ft 16 kts 297°
2026-04-30 21:38 48.11272 16.57378 607 ft 17 kts 297°
2026-04-30 21:38 48.11325 16.57212 607 ft 17 kts 294°
2026-04-30 21:38 48.11379 16.57037 605 ft 19 kts 296°
2026-04-30 21:39 48.11438 16.56855 604 ft 20 kts 297°
2026-04-30 21:39 48.11500 16.56665 602 ft 20 kts 296°
2026-04-30 21:39 48.11565 16.56466 599 ft 21 kts 297°
2026-04-30 21:39 48.11633 16.56258 597 ft 22 kts 296°
2026-04-30 21:40 48.11702 16.56048 595 ft 22 kts 296°
2026-04-30 21:40 48.11771 16.55834 593 ft 23 kts 296°
2026-04-30 21:40 48.11843 16.55614 591 ft 23 kts 296°
2026-04-30 21:40 48.11902 16.55390 590 ft 19 kts 291°
2026-04-30 21:41 48.11966 16.55317 590 ft 12 kts 22°
2026-04-30 21:41 48.12028 16.55363 590 ft 2 kts 17°
2026-04-30 21:41 48.12044 16.55349 590 ft 3 kts 288°
2026-04-30 21:41 48.12057 16.55310 589 ft 4 kts 296°
2026-04-30 21:42 48.12061 16.55298 589 ft 0 kts 296°